Vorticity
nan nan nan nan nan nan nan nan nan nan nan nan nan nan nan nan nan nan nan nan nan nan nan nan nan nan nan nan nan nan nan nan nan nan nan nan nan nan nan nan nan nan nan nan nan nan nan nan nan
nan 0 3 7 4 6 6 6 5 10 10 7 3 6 7 7 13 12 11 12 5 4 8 8 7 5 6 4 4 5 5 5 5 4 4 5 6 7 5 4 5 5 6 5 5 5 5 6 nan
nan 3 5 9 6 6 6 4 5 11 6 4 6 6 7 11 11 6 10 9 4 6 8 9 7 6 5 5 4 6 6 5 5 5 6 5 5 6 6 5 5 5 5 5 5 5 5 6 nan
nan 6 7 5 5 6 5 9 10 4 3 11 7 5 12 10 9 13 10 3 4 7 10 11 7 5 4 4 4 5 6 6 5 5 5 6 7 5 4 5 6 6 5 4 4 5 5 6 nan
nan 6 8 4 5 7 5 6 10 12 6 7 8 7 5 11 16 11 5 4 4 5 8 10 7 5 5 4 5 5 5 4 5 6 4 5 5 5 6 6 5 4 5 4 5 4 5 4 nan
nan 8 4 7 8 7 8 6 8 8 9 8 7 6 10 16 4 4 4 5 5 6 7 10 8 5 6 4 5 5 5 5 5 4 6 6 5 5 5 4 5 5 5 5 5 4 4 3 nan
nan 8 6 5 6 7 9 7 10 8 4 6 5 6 11 8 6 7 5 6 6 4 5 7 9 10 7 4 5 5 5 4 5 6 5 4 5 5 5 5 4 5 5 5 4 4 3 3 nan
nan 6 7 6 8 8 7 7 7 5 7 10 8 6 12 12 9 6 6 6 6 5 5 7 7 7 7 10 9 5 4 4 4 4 5 5 6 6 5 5 5 5 5 5 5 4 4 3 nan
nan 7 6 8 9 8 9 6 5 9 7 4 11 18 18 11 6 5 5 5 6 5 6 7 7 7 7 8 10 9 6 6 6 6 5 3 5 8 8 7 6 5 6 6 5 4 5 4 nan
nan 6 9 8 6 10 8 8 8 10 5 4 13 17 14 8 4 4 3 4 5 5 5 5 6 6 6 5 7 8 7 7 8 7 7 7 7 8 9 10 9 8 5 8 8 9 9 7 nan
nan 7 12 9 8 10 7 9 9 2 7 19 12 5 5 3 3 4 6 8 5 2 5 6 5 6 5 6 6 6 7 7 8 7 7 6 7 7 7 8 9 10 9 8 10 11 10 10 nan
nan 13 11 11 8 9 8 5 8 6 16 16 10 6 4 4 4 3 4 6 9 7 5 5 5 5 4 6 7 7 6 7 7 8 7 7 7 7 8 7 8 6 9 8 9 8 7 8 nan
nan 4 13 11 6 7 8 5 6 11 15 13 7 6 5 4 5 5 5 5 7 8 7 7 5 5 5 5 7 8 7 6 7 8 8 6 6 7 8 7 7 7 8 8 8 6 8 8 nan
nan 14 14 6 5 6 6 5 5 12 13 11 6 3 7 6 4 3 7 7 6 7 10 7 6 6 6 6 6 6 7 8 6 7 9 7 7 7 7 8 7 7 8 7 8 7 8 8 nan
nan 13 5 7 7 6 4 4 8 15 17 6 4 5 7 9 7 6 5 8 8 4 8 9 9 6 6 6 6 7 7 8 8 9 10 7 6 7 7 6 8 8 8 7 8 9 7 8 nan
nan 10 9 11 5 4 3 7 7 11 10 8 5 6 5 11 12 6 9 8 5 9 11 8 7 8 7 6 7 6 7 8 9 9 10 9 8 7 6 7 8 9 8 8 8 7 8 9 nan
nan 5 8 16 5 4 6 6 11 4 5 9 6 8 6 6 9 13 13 10 9 8 4 8 10 10 9 7 8 8 8 8 9 9 9 9 8 8 7 8 10 10 8 9 8 8 10 8 nan
nan 6 10 11 12 8 3 2 14 8 6 7 6 6 8 11 10 11 11 8 8 9 11 10 10 8 8 7 7 9 9 8 9 9 10 8 7 9 8 10 12 8 6 7 11 10 8 8 nan
nan 7 4 9 19 14 9 7 12 8 5 9 6 6 10 7 14 15 11 6 4 8 10 9 8 7 5 8 8 9 9 8 9 9 7 7 7 8 9 12 12 8 7 5 7 11 8 10 nan
nan 6 9 13 10 10 15 10 14 10 6 10 9 10 7 8 9 10 10 9 8 4 3 8 7 6 5 6 8 10 9 8 10 9 8 9 8 8 9 8 10 9 6 8 9 8 9 10 nan
nan 10 8 6 9 12 8 10 11 9 11 9 6 10 10 9 6 9 10 7 6 7 7 7 7 6 7 6 6 7 9 9 9 10 10 11 10 7 6 7 9 10 9 8 9 10 8 7 nan
nan 12 4 6 10 11 6 13 8 14 8 7 9 4 7 9 9 12 8 7 5 6 6 9 10 8 7 7 6 7 6 8 8 9 12 13 11 8 9 12 9 8 9 9 9 9 9 7 nan
nan 6 13 12 7 10 5 13 9 11 12 10 8 7 6 8 12 13 10 9 6 8 8 7 8 8 8 8 8 8 8 8 9 10 10 12 11 9 9 11 9 8 9 10 9 9 11 9 nan
nan 9 10 14 9 5 12 5 10 10 10 12 9 9 7 9 9 11 13 11 10 8 10 9 8 9 10 9 10 9 8 7 8 9 8 8 8 7 7 8 9 9 8 9 11 11 10 10 nan
nan 8 8 6 11 7 9 9 11 12 10 13 14 5 6 6 10 11 10 10 10 8 7 8 9 10 10 10 8 9 9 9 8 7 7 7 7 7 7 7 8 9 8 10 10 9 10 11 nan
nan 7 8 11 6 9 8 10 9 15 13 12 19 14 6 -0 6 8 9 12 11 9 8 9 9 9 10 9 8 9 8 8 9 9 8 7 8 8 8 7 8 8 10 10 10 9 8 9 nan
nan 11 9 5 10 14 5 5 12 10 11 13 14 16 12 9 9 7 8 13 11 11 11 8 8 8 9 8 9 9 9 10 9 8 7 8 9 10 9 7 7 8 9 9 9 8 8 10 nan
nan 5 5 10 14 6 9 11 10 6 10 14 12 7 7 7 10 14 15 11 10 10 10 11 10 9 7 8 9 10 8 8 8 9 9 8 9 10 8 6 7 8 9 9 8 9 8 9 nan
nan 6 11 16 9 10 9 10 16 10 13 11 8 13 18 12 8 11 10 8 10 10 9 8 8 8 8 8 9 10 9 9 8 8 10 9 9 9 8 7 8 8 9 10 8 7 7 8 nan
nan nan nan nan nan nan nan nan nan nan nan nan nan nan nan nan nan nan nan nan nan nan nan nan nan nan nan nan nan nan nan nan nan nan nan nan nan nan nan nan nan nan nan nan nan nan nan nan nan
CAPE
1460 1307 1254 1837 315 25 128 235 484 633 494 275 227 241 242 460 319 0 343 221 359 842 1742 1833 2178 1915 1563 1884 2298 2003 2318 1736 1910 1989 1830 1706 1689 1585 1363 1645 1735 1630 1716 1762 1695 1800 1568 1166 1848
1222 1479 1822 2046 19 0 32 236 633 780 367 74 70 144 200 545 732 499 300 291 560 1257 1957 1650 2394 2567 1819 2295 2235 1858 1953 2139 1824 1722 1544 1681 1581 1814 1403 1838 1805 1770 1706 1788 1608 1606 1868 1724 1345
1606 1677 2373 158 0 0 3 145 225 807 96 390 142 22 307 689 561 356 234 508 1250 1682 1843 1790 2517 2642 1926 2367 2320 1670 1032 1783 1941 1693 1719 1880 1825 1907 1809 1653 1839 1754 1753 1727 1867 1788 1728 1756 1624
2614 2452 87 0 5 14 30 71 343 854 151 25 93 327 621 662 466 322 418 1149 1377 1566 1728 2339 2363 2125 2008 2325 1797 1855 1748 2439 2153 2374 2062 1970 2114 2038 1728 1839 1459 1832 1770 1865 1713 1681 1622 1635 1571
1636 198 12 0 0 1 36 225 323 299 184 41 43 287 433 428 389 416 633 971 1392 1494 1710 2016 2757 2655 2183 1853 2047 2091 1861 1622 1657 1560 1282 1553 1335 1394 1512 1860 1868 1594 1657 1655 1561 1725 1766 1715 1238
787 17 16 10 51 107 143 117 431 311 81 109 155 26 208 454 542 397 377 784 1312 1601 1798 1959 2396 2768 2479 1911 2396 2315 2512 2107 1865 1679 2030 2066 1997 1926 1725 1095 894 1216 1213 1905 1798 1790 1343 871 938
238 4 60 164 145 55 13 63 269 359 140 94 25 31 283 527 473 330 450 670 1318 1628 1717 1906 2070 1996 2238 2320 2404 2190 1898 2154 2205 2343 1642 1395 1475 1777 1721 1465 1036 688 700 1067 1636 1639 1610 1714 1373
76 68 199 283 281 98 14 300 199 393 407 11 27 87 293 398 517 775 850 814 1085 1444 1525 1427 1676 2034 1709 1949 2166 2797 2129 1567 1513 1451 1649 1991 1907 1937 1994 2073 1629 1598 1018 561 709 952 1213 1645 1618
82 27 139 181 305 226 57 160 12 15 214 219 3 31 229 467 952 1072 1066 1021 1094 1305 1484 1367 1371 1342 1484 1603 2247 2438 2094 1597 1985 1793 1980 1669 786 782 995 1354 1476 923 1168 1336 1376 1290 1275 1547 1665
10 18 35 183 346 146 219 95 5 234 334 260 0 20 553 792 973 1109 1092 946 916 1079 1291 1209 1129 1155 1259 1605 1479 1701 1134 1412 1627 1621 1504 1684 1053 827 758 921 1102 822 375 498 1213 1388 1384 1244 840
0 5 8 329 143 71 80 47 171 182 124 0 0 354 597 575 635 957 943 783 710 873 1307 1199 1079 995 1025 1190 851 866 958 1032 983 745 686 876 804 478 708 338 467 140 147 8 61 289 502 223 217
0 5 247 515 362 72 48 143 219 413 327 0 0 393 503 398 377 592 653 500 513 536 928 1096 1090 944 677 723 594 707 659 647 704 669 510 437 682 385 410 367 232 51 3 0 0 1 20 57 105
0 0 118 357 83 124 171 121 381 566 266 0 0 95 459 339 267 400 486 490 474 398 668 829 774 706 604 316 417 648 640 649 563 524 547 480 348 459 314 238 102 23 22 0 0 0 1 13 52
0 0 243 188 113 89 384 441 653 657 309 0 0 0 62 299 149 328 539 639 644 471 674 1009 994 821 604 296 345 344 459 491 415 347 250 481 465 333 265 213 135 50 37 21 4 0 21 12 28
0 7 232 283 151 218 222 431 825 501 364 0 0 0 0 0 112 176 349 470 563 561 587 458 622 462 313 368 315 262 255 311 326 321 213 129 474 454 418 209 86 57 47 50 40 11 19 58 60
0 0 0 240 165 247 0 86 693 211 217 123 75 99 1 0 0 47 108 196 151 138 161 168 265 134 152 360 353 297 215 200 301 369 269 225 202 535 424 252 189 26 50 55 48 55 81 59 31
0 0 1 37 185 275 160 56 546 77 12 336 146 133 291 230 27 0 0 53 21 36 104 44 95 175 175 176 312 279 235 98 102 420 545 630 555 557 522 374 230 16 49 114 117 145 70 64 72
0 0 0 0 145 169 285 78 505 290 46 377 592 373 483 363 123 0 0 0 10 81 122 165 228 196 236 303 376 567 492 624 942 811 815 803 39 5 0 5 149 86 71 57 55 295 75 109 109
0 0 0 0 0 26 181 47 307 600 47 403 570 551 568 287 57 105 0 0 170 217 60 211 356 396 587 691 1135 1056 1121 999 769 764 614 681 403 237 560 327 274 94 58 4 79 230 352 325 243
0 0 0 0 0 6 6 18 530 613 243 298 153 310 409 193 147 509 146 57 79 138 104 0 225 365 808 723 739 1116 996 999 157 426 335 253 634 532 139 146 229 298 306 89 72 211 231 164 92
0 0 0 0 0 0 0 19 137 320 398 258 168 186 71 137 68 499 351 232 90 52 12 0 0 11 1010 1151 960 1241 662 489 432 482 556 301 338 186 196 160 182 144 60 199 347 299 173 148 73
0 0 0 3 0 0 0 0 0 257 260 215 193 34 45 143 43 172 538 420 352 225 98 22 0 0 131 1365 1349 1333 834 855 646 499 137 124 216 204 201 571 210 170 160 240 215 410 201 82 32
0 0 0 0 0 0 0 0 0 281 338 277 122 33 11 197 21 42 683 582 500 433 343 359 223 55 263 814 1525 1170 1031 703 795 601 591 739 373 360 458 382 246 227 149 100 124 150 114 57 13
0 0 0 0 0 0 0 0 0 3 112 539 342 93 29 258 233 439 833 754 664 588 709 689 521 285 545 1011 1545 1167 1105 1135 720 304 223 102 41 23 37 11 12 4 0 0 0 46 84 69 0
0 0 0 0 0 0 0 0 0 0 0 325 636 417 69 92 75 485 729 1266 863 982 1134 1011 637 1176 1440 1491 1572 1189 1189 1088 682 303 39 0 4 0 0 0 0 0 0 0 0 0 0 10 0
0 0 0 0 0 0 0 0 0 0 0 0 282 546 208 85 0 130 607 1206 1489 1407 1758 1995 1417 1805 1814 1664 1583 1293 1312 1235 597 161 1 0 0 0 0 0 0 0 0 0 0 0 0 0 0
0 0 0 0 0 0 0 0 0 0 0 0 37 320 329 179 0 9 453 1747 1979 2177 2541 2559 2088 1995 1845 1976 1885 1623 1172 642 48 0 0 0 0 8 50 0 0 0 0 0 0 0 0 0 0
0 0 0 0 0 0 0 0 0 0 3 0 101 468 373 429 555 242 1145 1845 2145 2349 2461 2378 2159 2101 1893 1943 1849 1370 832 17 0 0 0 3 5 80 0 0 0 0 0 0 0 0 0 0 0
0 0 0 0 0 0 0 0 0 0 0 76 256 537 562 695 752 754 1477 1723 1972 2202 2381 2284 2107 1968 1920 1959 1442 1049 441 15 0 0 0 2 52 20 14 0 0 0 0 0 0 0 0 0 0
0 0 0 0 1 0 0 0 0 0 68 349 620 725 964 1143 1564 1502 1561 1652 2110 2272 2308 2202 2059 2028 2036 1634 1196 1012 152 0 0 0 0 87 23 4 0 0 0 0 0 0 0 0 0 0 0